| time (UTC) | temp F | wind direction | speed MPH | gust MPH | rain 1hr in | rain 24hr in | rain mn in | humidity % | barometer mb |
| 20260904174202 | 97 | 246 | 1.0 | 2.0 | 0.00 | 0.01 | 0.01 | 63 | 1016.6 |
| 20260904173656 | 99 | 239 | 3.0 | 5.0 | 0.00 | 0.01 | 0.01 | 61 | 1016.7 |
| 20260904173151 | 98 | 333 | 2.0 | 2.0 | 0.00 | 0.01 | 0.01 | 62 | 1016.6 |
| 20260904172648 | 98 | 242 | 1.0 | 1.0 | 0.00 | 0.01 | 0.01 | 64 | 1016.5 |
| 20260904172147 | 99 | 251 | 2.0 | 3.0 | 0.00 | 0.01 | 0.01 | 64 | 1016.8 |
| 20260904171643 | 98 | 176 | 3.0 | 5.0 | 0.00 | 0.01 | 0.01 | 63 | 1016.7 |
| 20260904171138 | 96 | 224 | 3.0 | 3.0 | 0.00 | 0.01 | 0.01 | 66 | 1017.0 |
| 20260904170634 | 96 | 199 | 2.0 | 2.0 | 0.00 | 0.01 | 0.01 | 67 | 1016.7 |
| 20260904170129 | 97 | 221 | 5.0 | 7.0 | 0.00 | 0.01 | 0.01 | 71 | 1017.0 |
| 20260904165627 | 97 | 213 | 4.0 | 6.0 | 0.00 | 0.01 | 0.01 | 66 | 1016.9 |
| 20260904165121 | 97 | 233 | 2.0 | 2.0 | 0.00 | 0.01 | 0.01 | 66 | 1017.1 |
| 20260904164622 | 95 | 209 | 3.0 | 6.0 | 0.00 | 0.01 | 0.01 | 73 | 1017.0 |
| 20260904164117 | 95 | 212 | 3.0 | 3.0 | 0.00 | 0.01 | 0.01 | 71 | 1017.2 |
| 20260904163612 | 97 | 247 | 4.0 | 6.0 | 0.00 | 0.01 | 0.01 | 67 | 1016.9 |
| 20260904163108 | 96 | 191 | 3.0 | 5.0 | 0.00 | 0.01 | 0.01 | 69 | 1017.2 |
| 20260904162603 | 98 | 263 | 3.0 | 5.0 | 0.00 | 0.01 | 0.01 | 68 | 1017.1 |
| 20260904162058 | 98 | 212 | 2.0 | 2.0 | 0.00 | 0.01 | 0.01 | 68 | 1017.1 |
| 20260904161558 | 96 | 262 | 3.0 | 3.0 | 0.00 | 0.01 | 0.01 | 67 | 1017.2 |
| 20260904161047 | 95 | 230 | 3.0 | 3.0 | 0.00 | 0.01 | 0.01 | 68 | 1017.5 |
| 20260904160543 | 96 | 279 | 5.0 | 6.0 | 0.00 | 0.01 | 0.01 | 68 | 1017.6 |
| 20260904160039 | 96 | 213 | 4.0 | 5.0 | 0.00 | 0.01 | 0.01 | 72 | 1017.5 |
| 20260904155538 | 96 | 211 | 4.0 | 8.0 | 0.00 | 0.01 | 0.01 | 71 | 1017.6 |
| 20260904155037 | 95 | 216 | 3.0 | 3.0 | 0.00 | 0.01 | 0.01 | 73 | 1017.7 |
| 20260904154531 | 95 | 261 | 3.0 | 3.0 | 0.00 | 0.01 | 0.01 | 73 | 1017.5 |
| 20260904154027 | 94 | 229 | 2.0 | 5.0 | 0.00 | 0.01 | 0.01 | 74 | 1017.4 |
| 20260904153526 | 95 | 224 | 7.0 | 9.0 | 0.00 | 0.01 | 0.01 | 73 | 1017.8 |
| 20260904153023 | 95 | 191 | 4.0 | 5.0 | 0.00 | 0.01 | 0.01 | 76 | 1017.6 |
| 20260904152519 | 94 | 237 | 1.0 | 2.0 | 0.00 | 0.01 | 0.01 | 77 | 1017.7 |
| 20260904152014 | 94 | 285 | 1.0 | 2.0 | 0.00 | 0.01 | 0.01 | 76 | 1017.6 |
| 20260904151509 | 94 | 249 | 4.0 | 5.0 | 0.00 | 0.01 | 0.01 | 76 | 1017.4 |
| 20260904151008 | 93 | 314 | 0.0 | 0.0 | 0.00 | 0.01 | 0.01 | 77 | 1017.4 |
| 20260904150457 | 93 | 224 | 3.0 | 3.0 | 0.00 | 0.01 | 0.01 | 79 | 1017.6 |
| 20260904145956 | 93 | 267 | 1.0 | 1.0 | 0.00 | 0.01 | 0.01 | 80 | 1017.6 |
| 20260904145452 | 94 | 264 | 1.0 | 1.0 | 0.00 | 0.01 | 0.01 | 76 | 1017.4 |
| 20260904144947 | 93 | 232 | 0.0 | 1.0 | 0.00 | 0.01 | 0.01 | 80 | 1017.3 |
| 20260904144443 | 93 | 212 | 2.0 | 2.0 | 0.00 | 0.01 | 0.01 | 80 | 1017.4 |
| 20260904143938 | 93 | 201 | 0.0 | 1.0 | 0.00 | 0.01 | 0.01 | 83 | 1017.6 |
| 20260904143434 | 93 | 289 | 3.0 | 5.0 | 0.00 | 0.01 | 0.01 | 83 | 1017.3 |
| 20260904142931 | 94 | 273 | 1.0 | 1.0 | 0.00 | 0.01 | 0.01 | 82 | 1017.2 |
| 20260904142426 | 92 | 213 | 2.0 | 3.0 | 0.00 | 0.01 | 0.01 | 84 | 1017.1 |
| 20260904141921 | 91 | 205 | 3.0 | 5.0 | 0.00 | 0.01 | 0.01 | 85 | 1017.2 |
| 20260904141416 | 91 | 277 | 3.0 | 5.0 | 0.00 | 0.01 | 0.01 | 83 | 1017.2 |
| 20260904140913 | 91 | 290 | 1.0 | 1.0 | 0.00 | 0.01 | 0.01 | 85 | 1017.0 |
| 20260904140412 | 91 | 296 | 0.0 | 0.0 | 0.00 | 0.01 | 0.01 | 85 | 1016.8 |
| 20260904135912 | 91 | 213 | 6.0 | 7.0 | 0.00 | 0.01 | 0.01 | 85 | 1017.0 |
| 20260904135411 | 90 | 205 | 1.0 | 2.0 | 0.00 | 0.01 | 0.01 | 87 | 1016.8 |
| 20260904134908 | 90 | 236 | 3.0 | 5.0 | 0.00 | 0.01 | 0.01 | 87 | 1017.0 |
| 20260904134407 | 90 | 262 | 1.0 | 1.0 | 0.00 | 0.01 | 0.01 | 87 | 1016.8 |
| 20260904133902 | 90 | 254 | 1.0 | 2.0 | 0.00 | 0.01 | 0.01 | 88 | 1016.9 |
| 20260904133357 | 89 | 266 | 0.0 | 1.0 | 0.00 | 0.01 | 0.01 | 88 | 1017.1 |
| 20260904132853 | 89 | 236 | 1.0 | 2.0 | 0.00 | 0.01 | 0.01 | 89 | 1016.8 |
| 20260904132348 | 90 | 232 | 2.0 | 5.0 | 0.00 | 0.01 | 0.01 | 88 | 1016.9 |
| 20260904131847 | 89 | 255 | 0.0 | 1.0 | 0.00 | 0.01 | 0.01 | 91 | 1017.0 |
| 20260904131343 | 88 | 202 | 0.0 | 0.0 | 0.00 | 0.01 | 0.01 | 91 | 1016.7 |
| 20260904130838 | 88 | 203 | 1.0 | 2.0 | 0.00 | 0.01 | 0.01 | 91 | 1016.8 |
| 20260904130337 | 88 | 222 | 3.0 | 5.0 | 0.00 | 0.01 | 0.01 | 91 | 1016.9 |
| 20260904125832 | 87 | 307 | 0.0 | 1.0 | 0.00 | 0.01 | 0.01 | 93 | 1016.9 |
| 20260904125329 | 86 | 237 | 1.0 | 1.0 | 0.00 | 0.01 | 0.01 | 94 | 1016.7 |
| 20260904124827 | 86 | 293 | 0.0 | 0.0 | 0.00 | 0.01 | 0.01 | 95 | 1016.7 |
| 20260904124324 | 85 | 315 | 0.0 | 0.0 | 0.00 | 0.01 | 0.01 | 97 | 1016.5 |
| 20260904123824 | 84 | 249 | 1.0 | 1.0 | 0.00 | 0.01 | 0.01 | 99 | 1016.5 |
| 20260904123319 | 83 | 259 | 0.0 | 0.0 | 0.00 | 0.01 | 0.01 | 99 | 1016.4 |
| 20260904122814 | 83 | 278 | 0.0 | 0.0 | 0.00 | 0.01 | 0.01 | 99 | 1016.3 |
| 20260904122309 | 83 | 271 | 0.0 | 1.0 | 0.00 | 0.01 | 0.01 | 99 | 1016.4 |
| 20260904121804 | 82 | 195 | 2.0 | 2.0 | 0.00 | 0.01 | 0.01 | 99 | 1016.5 |
| 20260904121300 | 82 | 234 | 0.0 | 1.0 | 0.00 | 0.01 | 0.01 | 99 | 1016.5 |
| 20260904120756 | 82 | 228 | 0.0 | 1.0 | 0.00 | 0.01 | 0.01 | 99 | 1016.3 |
| 20260904120251 | 82 | 283 | 0.0 | 0.0 | 0.00 | 0.01 | 0.01 | 99 | 1016.4 |
| 20260904115747 | 81 | 222 | 0.0 | 0.0 | 0.00 | 0.01 | 0.01 | 99 | 1016.3 |
| 20260904115242 | 81 | 234 | 1.0 | 1.0 | 0.00 | 0.01 | 0.01 | 99 | 1016.1 |
| 20260904114737 | 81 | 242 | 1.0 | 1.0 | 0.00 | 0.01 | 0.01 | 99 | 1016.1 |
| 20260904114237 | 80 | 271 | 0.0 | 0.0 | 0.00 | 0.01 | 0.01 | 99 | 1015.9 |
| 20260904113731 | 80 | 278 | 0.0 | 0.0 | 0.00 | 0.01 | 0.01 | 99 | 1016.0 |
| 20260904113230 | 80 | 300 | 0.0 | 0.0 | 0.00 | 0.01 | 0.01 | 99 | 1016.2 |
| 20260904112726 | 80 | 279 | 0.0 | 0.0 | 0.00 | 0.01 | 0.01 | 99 | 1015.7 |
| 20260904112221 | 79 | 302 | 0.0 | 0.0 | 0.00 | 0.01 | 0.01 | 99 | 1015.8 |
| 20260904111716 | 79 | 275 | 0.0 | 0.0 | 0.00 | 0.01 | 0.01 | 99 | 1015.8 |
| 20260904111212 | 79 | 282 | 0.0 | 0.0 | 0.00 | 0.01 | 0.01 | 99 | 1015.7 |
| 20260904110708 | 79 | 282 | 0.0 | 0.0 | 0.00 | 0.01 | 0.01 | 99 | 1015.9 |
| 20260904110207 | 79 | 286 | 0.0 | 0.0 | 0.00 | 0.01 | 0.01 | 99 | 1015.9 |
| 20260904105702 | 79 | 291 | 0.0 | 0.0 | 0.00 | 0.01 | 0.01 | 99 | 1015.6 |
| 20260904105156 | 79 | 290 | 0.0 | 0.0 | 0.07 | 0.01 | 0.01 | 99 | 1015.5 |
| 20260904104652 | 79 | 290 | 0.0 | 0.0 | 0.07 | 0.01 | 0.01 | 99 | 1015.4 |
| 20260904104147 | 79 | 291 | 0.0 | 0.0 | 0.07 | 0.01 | 0.01 | 99 | 1015.6 |
| 20260904103644 | 79 | 289 | 0.0 | 0.0 | 0.00 | 0.00 | 0.00 | 99 | 1015.6 |
| 20260904103139 | 80 | 318 | 0.0 | 0.0 | 0.00 | 0.00 | 0.00 | 99 | 1015.6 |
| 20260904102635 | 79 | 318 | 0.0 | 0.0 | 0.00 | 0.00 | 0.00 | 99 | 1015.4 |
| 20260904102129 | 80 | 319 | 0.0 | 0.0 | 0.00 | 0.00 | 0.00 | 99 | 1015.5 |
| 20260904101626 | 80 | 294 | 0.0 | 0.0 | 0.00 | 0.00 | 0.00 | 99 | 1015.4 |
| 20260904101116 | 79 | 302 | 0.0 | 0.0 | 0.00 | 0.00 | 0.00 | 99 | 1015.2 |
| 20260904100612 | 80 | 312 | 0.0 | 0.0 | 0.00 | 0.00 | 0.00 | 99 | 1015.1 |
| 20260904100107 | 80 | 285 | 0.0 | 0.0 | 0.00 | 0.00 | 0.00 | 99 | 1015.3 |
| 20260904095601 | 79 | 285 | 0.0 | 0.0 | 0.00 | 0.00 | 0.00 | 99 | 1015.1 |
| 20260904095057 | 79 | 284 | 0.0 | 0.0 | 0.00 | 0.00 | 0.00 | 99 | 1015.0 |
| 20260904094557 | 79 | 297 | 0.0 | 0.0 | 0.00 | 0.00 | 0.00 | 99 | 1015.0 |
| 20260904094052 | 79 | 296 | 0.0 | 0.0 | 0.00 | 0.00 | 0.00 | 99 | 1014.9 |
| 20260904093549 | 79 | 296 | 0.0 | 0.0 | 0.00 | 0.00 | 0.00 | 99 | 1014.9 |
| 20260904093049 | 79 | 296 | 0.0 | 0.0 | 0.00 | 0.00 | 0.00 | 99 | 1015.0 |
| 20260904092544 | 79 | 296 | 0.0 | 0.0 | 0.00 | 0.00 | 0.00 | 99 | 1015.0 |
| 20260904092041 | 79 | 296 | 0.0 | 0.0 | 0.00 | 0.00 | 0.00 | 99 | 1014.8 |
| 20260904091537 | 79 | 296 | 0.0 | 0.0 | 0.00 | 0.00 | 0.00 | 99 | 1015.0 |
| 20260904091036 | 79 | 296 | 0.0 | 0.0 | 0.00 | 0.00 | 0.00 | 99 | 1014.8 |
| 20260904090532 | 79 | 296 | 0.0 | 0.0 | 0.00 | 0.00 | 0.00 | 99 | 1014.8 |
| 20260904090028 | 79 | 296 | 0.0 | 0.0 | 0.00 | 0.00 | 0.00 | 99 | 1014.9 |
| 20260904085522 | 79 | 296 | 0.0 | 0.0 | 0.00 | 0.00 | 0.00 | 99 | 1014.8 |
| 20260904085022 | 79 | 296 | 0.0 | 0.0 | 0.00 | 0.00 | 0.00 | 99 | 1014.8 |
| 20260904084518 | 79 | 296 | 0.0 | 0.0 | 0.00 | 0.00 | 0.00 | 99 | 1014.7 |
| 20260904084014 | 79 | 296 | 0.0 | 0.0 | 0.00 | 0.00 | 0.00 | 99 | 1015.1 |
| 20260904083510 | 79 | 296 | 0.0 | 0.0 | 0.00 | 0.00 | 0.00 | 99 | 1014.9 |
| 20260904083005 | 79 | 296 | 0.0 | 0.0 | 0.00 | 0.00 | 0.00 | 99 | 1014.9 |
| 20260904082500 | 79 | 296 | 0.0 | 0.0 | 0.00 | 0.00 | 0.00 | 99 | 1014.9 |
| 20260904081955 | 79 | 294 | 0.0 | 0.0 | 0.00 | 0.00 | 0.00 | 99 | 1014.5 |
| 20260904081450 | 79 | 296 | 0.0 | 0.0 | 0.00 | 0.00 | 0.00 | 99 | 1014.8 |
| 20260904080946 | 79 | 296 | 0.0 | 0.0 | 0.00 | 0.00 | 0.00 | 99 | 1014.7 |
| 20260904080441 | 79 | 296 | 0.0 | 0.0 | 0.00 | 0.00 | 0.00 | 99 | 1014.8 |
| 20260904075937 | 79 | 296 | 0.0 | 0.0 | 0.00 | 0.00 | 0.00 | 99 | 1014.7 |
| 20260904075433 | 79 | 296 | 0.0 | 0.0 | 0.00 | 0.00 | 0.00 | 99 | 1014.9 |
| 20260904074932 | 79 | 296 | 0.0 | 0.0 | 0.00 | 0.00 | 0.00 | 99 | 1014.8 |
| 20260904074427 | 79 | 296 | 0.0 | 0.0 | 0.00 | 0.00 | 0.00 | 99 | 1014.8 |
| 20260904073922 | 79 | 296 | 0.0 | 0.0 | 0.00 | 0.00 | 0.00 | 99 | 1014.9 |
| 20260904073418 | 79 | 296 | 0.0 | 0.0 | 0.00 | 0.00 | 0.00 | 99 | 1014.6 |
| 20260904072913 | 79 | 292 | 0.0 | 0.0 | 0.00 | 0.00 | 0.00 | 99 | 1014.7 |
| 20260904072409 | 79 | 297 | 0.0 | 0.0 | 0.00 | 0.00 | 0.00 | 99 | 1014.6 |
| 20260904071904 | 79 | 297 | 0.0 | 0.0 | 0.00 | 0.00 | 0.00 | 99 | 1014.7 |
| 20260904071359 | 79 | 297 | 0.0 | 0.0 | 0.00 | 0.00 | 0.00 | 99 | 1014.7 |
| 20260904070854 | 79 | 298 | 0.0 | 0.0 | 0.00 | 0.00 | 0.00 | 99 | 1014.5 |
| 20260904070352 | 79 | 298 | 0.0 | 0.0 | 0.00 | 0.00 | 0.00 | 99 | 1014.8 |
| 20260904065847 | 79 | 298 | 0.0 | 0.0 | 0.00 | 0.00 | 0.00 | 99 | 1014.9 |
| 20260904065344 | 79 | 298 | 0.0 | 0.0 | 0.00 | 0.00 | 0.00 | 99 | 1015.0 |
| 20260904064838 | 79 | 298 | 0.0 | 0.0 | 0.00 | 0.00 | 0.00 | 99 | 1015.1 |
| 20260904064334 | 79 | 298 | 0.0 | 0.0 | 0.00 | 0.00 | 0.00 | 99 | 1014.9 |
| 20260904063829 | 79 | 297 | 0.0 | 0.0 | 0.00 | 0.00 | 0.00 | 99 | 1015.0 |
| 20260904063326 | 79 | 297 | 0.0 | 0.0 | 0.00 | 0.00 | 0.00 | 99 | 1015.2 |
| 20260904062821 | 79 | 297 | 0.0 | 0.0 | 0.00 | 0.00 | 0.00 | 99 | 1015.1 |
| 20260904062317 | 79 | 297 | 0.0 | 0.0 | 0.00 | 0.00 | 0.00 | 99 | 1015.0 |
| 20260904061812 | 79 | 297 | 0.0 | 0.0 | 0.00 | 0.00 | 0.00 | 99 | 1015.2 |
| 20260904061309 | 79 | 297 | 0.0 | 0.0 | 0.00 | 0.00 | 0.00 | 99 | 1015.3 |
| 20260904060805 | 79 | 297 | 0.0 | 0.0 | 0.00 | 0.00 | 0.00 | 99 | 1015.2 |
| 20260904060301 | 79 | 297 | 0.0 | 0.0 | 0.00 | 0.00 | 0.00 | 99 | 1015.3 |
| 20260904055755 | 79 | 297 | 0.0 | 0.0 | 0.00 | 0.00 | 0.00 | 99 | 1015.3 |
| 20260904055256 | 79 | 297 | 0.0 | 0.0 | 0.00 | 0.00 | 0.00 | 99 | 1015.4 |
| 20260904054751 | 79 | 297 | 0.0 | 0.0 | 0.00 | 0.00 | 0.00 | 99 | 1015.6 |
| 20260904054247 | 79 | 297 | 0.0 | 0.0 | 0.00 | 0.00 | 0.00 | 99 | 1015.5 |
| 20260904053742 | 79 | 297 | 0.0 | 0.0 | 0.00 | 0.00 | 0.00 | 99 | 1015.4 |
| 20260904053241 | 79 | 297 | 0.0 | 0.0 | 0.00 | 0.00 | 0.00 | 99 | 1015.5 |
| 20260904052738 | 79 | 297 | 0.0 | 0.0 | 0.00 | 0.00 | 0.00 | 99 | 1015.4 |
| 20260904052233 | 79 | 297 | 0.0 | 0.0 | 0.00 | 0.00 | 0.00 | 99 | 1015.5 |
| 20260904051731 | 79 | 297 | 0.0 | 0.0 | 0.00 | 0.00 | 0.00 | 99 | 1015.7 |
| 20260904051230 | 79 | 297 | 0.0 | 0.0 | 0.00 | 0.00 | 0.00 | 99 | 1015.5 |
| 20260904050726 | 79 | 297 | 0.0 | 0.0 | 0.00 | 0.00 | 0.00 | 99 | 1015.4 |
| 20260904050222 | 79 | 297 | 0.0 | 0.0 | 0.00 | 0.00 | 0.00 | 99 | 1015.7 |
| 20260904045717 | 79 | 297 | 0.0 | 0.0 | 0.00 | 0.00 | 0.00 | 99 | 1015.6 |
| 20260904045212 | 79 | 297 | 0.0 | 0.0 | 0.00 | 0.00 | 0.00 | 99 | 1015.7 |
| 20260904044707 | 79 | 297 | 0.0 | 0.0 | 0.00 | 0.00 | 0.00 | 99 | 1015.5 |
| 20260904044203 | 79 | 297 | 0.0 | 0.0 | 0.00 | 0.00 | 0.00 | 99 | 1015.6 |
| 20260904043659 | 79 | 297 | 0.0 | 0.0 | 0.00 | 0.00 | 0.00 | 99 | 1015.5 |
| 20260904043155 | 79 | 297 | 0.0 | 0.0 | 0.00 | 0.00 | 0.00 | 99 | 1015.8 |
| 20260904042651 | 79 | 297 | 0.0 | 0.0 | 0.00 | 0.00 | 0.00 | 99 | 1015.8 |
| 20260904042146 | 79 | 297 | 0.0 | 0.0 | 0.00 | 0.00 | 0.00 | 99 | 1015.8 |
| 20260904041641 | 79 | 297 | 0.0 | 0.0 | 0.00 | 0.00 | 0.00 | 99 | 1015.7 |
| 20260904041138 | 79 | 297 | 0.0 | 0.0 | 0.00 | 0.00 | 0.00 | 99 | 1015.6 |
| 20260904040633 | 79 | 297 | 0.0 | 0.0 | 0.00 | 0.00 | 0.00 | 99 | 1015.9 |
| 20260904040129 | 79 | 296 | 0.0 | 0.0 | 0.00 | 0.00 | 0.00 | 99 | 1015.8 |
| 20260904035625 | 79 | 296 | 0.0 | 0.0 | 0.00 | 0.04 | 0.04 | 99 | 1015.7 |
| 20260904035125 | 79 | 296 | 0.0 | 0.0 | 0.00 | 0.04 | 0.04 | 99 | 1015.7 |
| 20260904034624 | 79 | 297 | 0.0 | 0.0 | 0.00 | 0.04 | 0.04 | 99 | 1015.8 |
| 20260904034120 | 79 | 297 | 0.0 | 0.0 | 0.00 | 0.04 | 0.04 | 99 | 1015.9 |
| 20260904033615 | 79 | 297 | 0.0 | 0.0 | 0.00 | 0.04 | 0.04 | 99 | 1015.8 |
| 20260904033113 | 79 | 297 | 0.0 | 0.0 | 0.00 | 0.04 | 0.04 | 99 | 1015.6 |
| 20260904032608 | 79 | 297 | 0.0 | 0.0 | 0.00 | 0.04 | 0.04 | 99 | 1015.6 |
| 20260904032107 | 79 | 297 | 0.0 | 0.0 | 0.00 | 0.04 | 0.04 | 99 | 1015.6 |
| 20260904031606 | 79 | 295 | 0.0 | 0.0 | 0.00 | 0.04 | 0.04 | 99 | 1015.7 |
| 20260904031102 | 79 | 294 | 0.0 | 0.0 | 0.00 | 0.04 | 0.04 | 99 | 1015.9 |
| 20260904030558 | 79 | 294 | 0.0 | 0.0 | 0.00 | 0.04 | 0.04 | 99 | 1015.9 |
| 20260904030053 | 79 | 295 | 0.0 | 0.0 | 0.00 | 0.04 | 0.04 | 99 | 1015.9 |
| 20260904025549 | 79 | 294 | 0.0 | 0.0 | 0.00 | 0.04 | 0.04 | 99 | 1016.1 |
| 20260904025043 | 79 | 294 | 0.0 | 0.0 | 0.00 | 0.04 | 0.04 | 99 | 1016.1 |
| 20260904024539 | 79 | 293 | 0.0 | 0.0 | 0.00 | 0.04 | 0.04 | 99 | 1015.9 |
| 20260904024035 | 79 | 275 | 0.0 | 0.0 | 0.00 | 0.04 | 0.04 | 99 | 1015.8 |
| 20260904023531 | 80 | 189 | 0.0 | 0.0 | 0.00 | 0.04 | 0.04 | 99 | 1015.8 |
| 20260904023026 | 79 | 152 | 2.0 | 2.0 | 0.00 | 0.04 | 0.04 | 99 | 1015.7 |
| 20260904022521 | 79 | 100 | 1.0 | 2.0 | 0.00 | 0.04 | 0.04 | 99 | 1015.9 |
| 20260904022018 | 79 | 149 | 0.0 | 1.0 | 0.00 | 0.04 | 0.04 | 99 | 1015.9 |
| 20260904021513 | 79 | 282 | 0.0 | 0.0 | 0.00 | 0.04 | 0.04 | 99 | 1016.0 |
| 20260904021008 | 79 | 283 | 0.0 | 0.0 | 0.00 | 0.04 | 0.04 | 99 | 1016.1 |
| 20260904020503 | 79 | 283 | 0.0 | 0.0 | 0.00 | 0.04 | 0.04 | 99 | 1016.1 |
| 20260904020002 | 79 | 286 | 0.0 | 0.0 | 0.00 | 0.04 | 0.04 | 99 | 1015.9 |
| 20260904015457 | 79 | 288 | 0.0 | 0.0 | 0.00 | 0.04 | 0.04 | 99 | 1016.0 |
| 20260904014956 | 79 | 288 | 0.0 | 0.0 | 0.00 | 0.04 | 0.04 | 99 | 1015.8 |
| 20260904014451 | 79 | 289 | 0.0 | 0.0 | 0.00 | 0.04 | 0.04 | 99 | 1015.9 |
| 20260904013947 | 79 | 289 | 0.0 | 0.0 | 0.00 | 0.04 | 0.04 | 99 | 1015.9 |
| 20260904013443 | 79 | 297 | 0.0 | 0.0 | 0.00 | 0.04 | 0.04 | 99 | 1016.1 |
| 20260904012939 | 79 | 296 | 0.0 | 0.0 | 0.00 | 0.04 | 0.04 | 99 | 1015.9 |
| 20260904012438 | 79 | 303 | 0.0 | 0.0 | 0.00 | 0.04 | 0.04 | 99 | 1016.2 |
| 20260904011933 | 79 | 304 | 0.0 | 0.0 | 0.00 | 0.04 | 0.04 | 99 | 1015.9 |
| 20260904011427 | 80 | 303 | 0.0 | 0.0 | 0.00 | 0.04 | 0.04 | 99 | 1015.7 |
| 20260904010923 | 80 | 306 | 0.0 | 0.0 | 0.00 | 0.04 | 0.04 | 99 | 1015.5 |
| 20260904010420 | 80 | 306 | 0.0 | 0.0 | 0.00 | 0.04 | 0.04 | 99 | 1015.4 |
| 20260904005920 | 80 | 312 | 0.0 | 0.0 | 0.00 | 0.04 | 0.04 | 99 | 1015.4 |
| 20260904005415 | 80 | 314 | 0.0 | 0.0 | 0.00 | 0.04 | 0.04 | 99 | 1015.5 |
| 20260904004910 | 80 | 302 | 0.0 | 0.0 | 0.00 | 0.04 | 0.04 | 99 | 1015.3 |
| 20260904004407 | 80 | 302 | 0.0 | 0.0 | 0.00 | 0.04 | 0.04 | 98 | 1015.3 |
| 20260904003907 | 80 | 302 | 0.0 | 0.0 | 0.00 | 0.04 | 0.04 | 98 | 1015.2 |
| 20260904003402 | 80 | 302 | 0.0 | 0.0 | 0.00 | 0.04 | 0.04 | 98 | 1015.3 |
| 20260904002857 | 80 | 302 | 0.0 | 0.0 | 0.00 | 0.04 | 0.04 | 97 | 1015.1 |
| 20260904002354 | 80 | 302 | 0.0 | 0.0 | 0.00 | 0.04 | 0.04 | 97 | 1015.4 |
| 20260904001852 | 80 | 302 | 0.0 | 0.0 | 0.00 | 0.04 | 0.04 | 97 | 1015.6 |
| 20260904001348 | 80 | 302 | 0.0 | 0.0 | 0.00 | 0.04 | 0.04 | 97 | 1015.3 |
| 20260904000843 | 80 | 302 | 0.0 | 0.0 | 0.00 | 0.04 | 0.04 | 97 | 1015.5 |
| 20260904000342 | 80 | 292 | 0.0 | 0.0 | 0.00 | 0.04 | 0.04 | 97 | 1015.4 |
| 20260903235837 | 80 | 296 | 0.0 | 0.0 | 0.00 | 0.04 | 0.04 | 96 | 1015.6 |
| 20260903235333 | 80 | 297 | 0.0 | 0.0 | 0.00 | 0.04 | 0.04 | 96 | 1015.3 |
| 20260903234832 | 80 | 296 | 0.0 | 0.0 | 0.00 | 0.04 | 0.04 | 96 | 1015.5 |
| 20260903234329 | 81 | 298 | 0.0 | 0.0 | 0.00 | 0.04 | 0.04 | 96 | 1015.2 |
| 20260903233825 | 80 | 298 | 0.0 | 0.0 | 0.00 | 0.04 | 0.04 | 95 | 1015.0 |
| 20260903233320 | 81 | 314 | 0.0 | 0.0 | 0.00 | 0.04 | 0.04 | 95 | 1015.2 |
| 20260903232819 | 81 | 315 | 0.0 | 0.0 | 0.00 | 0.04 | 0.04 | 95 | 1014.9 |
| 20260903232316 | 80 | 315 | 0.0 | 0.0 | 0.00 | 0.04 | 0.04 | 95 | 1015.2 |
| 20260903231814 | 81 | 314 | 0.0 | 0.0 | 0.00 | 0.04 | 0.04 | 96 | 1015.2 |
| 20260903231310 | 81 | 314 | 0.0 | 0.0 | 0.00 | 0.04 | 0.04 | 95 | 1014.9 |
| 20260903230805 | 81 | 312 | 0.0 | 0.0 | 0.00 | 0.04 | 0.04 | 95 | 1015.3 |
| 20260903230300 | 81 | 311 | 0.0 | 0.0 | 0.00 | 0.04 | 0.04 | 95 | 1015.3 |
| 20260903225756 | 81 | 311 | 0.0 | 0.0 | 0.00 | 0.04 | 0.04 | 95 | 1015.3 |
| 20260903225252 | 81 | 312 | 0.0 | 0.0 | 0.00 | 0.04 | 0.04 | 94 | 1015.0 |
| 20260903224749 | 81 | 337 | 0.0 | 0.0 | 0.00 | 0.04 | 0.04 | 94 | 1014.9 |
| 20260903224244 | 81 | 243 | 1.0 | 1.0 | 0.00 | 0.04 | 0.04 | 93 | 1015.1 |
| 20260903223739 | 81 | 335 | 0.0 | 0.0 | 0.00 | 0.04 | 0.04 | 92 | 1014.8 |
| 20260903223237 | 81 | 280 | 0.0 | 0.0 | 0.00 | 0.04 | 0.04 | 92 | 1014.8 |
| 20260903222733 | 81 | 73 | 0.0 | 1.0 | 0.00 | 0.04 | 0.04 | 92 | 1014.8 |
| 20260903222232 | 81 | 216 | 0.0 | 0.0 | 0.00 | 0.04 | 0.04 | 91 | 1015.1 |
| 20260903221727 | 81 | 297 | 2.0 | 3.0 | 0.00 | 0.04 | 0.04 | 91 | 1015.1 |
| 20260903221226 | 82 | 250 | 3.0 | 6.0 | 0.00 | 0.04 | 0.04 | 89 | 1015.0 |
| 20260903220724 | 83 | 295 | 1.0 | 2.0 | 0.00 | 0.04 | 0.04 | 89 | 1014.8 |
| 20260903220219 | 84 | 277 | 1.0 | 1.0 | 0.00 | 0.04 | 0.04 | 89 | 1015.0 |
| 20260903215718 | 86 | 171 | 2.0 | 2.0 | 0.00 | 0.04 | 0.04 | 91 | 1014.9 |
| 20260903215214 | 87 | 251 | 1.0 | 1.0 | 0.00 | 0.04 | 0.04 | 89 | 1015.0 |
| 20260903214711 | 87 | 198 | 1.0 | 1.0 | 0.00 | 0.04 | 0.04 | 88 | 1014.7 |
| 20260903214208 | 87 | 129 | 2.0 | 2.0 | 0.00 | 0.04 | 0.04 | 88 | 1014.7 |
| 20260903213702 | 87 | 142 | 6.0 | 8.0 | 0.00 | 0.04 | 0.04 | 87 | 1014.8 |
| 20260903213158 | 87 | 145 | 2.0 | 2.0 | 0.00 | 0.04 | 0.04 | 88 | 1014.7 |
| 20260903212654 | 87 | 96 | 4.0 | 6.0 | 0.00 | 0.04 | 0.04 | 87 | 1014.6 |
| 20260903212150 | 88 | 61 | 2.0 | 2.0 | 0.00 | 0.04 | 0.04 | 87 | 1014.8 |
| 20260903211643 | 88 | 152 | 2.0 | 3.0 | 0.00 | 0.04 | 0.04 | 86 | 1014.8 |
| 20260903211140 | 89 | 114 | 4.0 | 6.0 | 0.00 | 0.04 | 0.04 | 84 | 1014.7 |
| 20260903210636 | 89 | 129 | 0.0 | 1.0 | 0.00 | 0.04 | 0.04 | 85 | 1014.5 |
| 20260903210131 | 89 | 190 | 5.0 | 7.0 | 0.00 | 0.04 | 0.04 | 85 | 1013.9 |
| 20260903205625 | 88 | 146 | 5.0 | 8.0 | 0.00 | 0.04 | 0.04 | 86 | 1013.9 |
| 20260903205125 | 88 | 70 | 1.0 | 2.0 | 0.00 | 0.04 | 0.04 | 87 | 1013.9 |
| 20260903204620 | 88 | 154 | 5.0 | 7.0 | 0.00 | 0.04 | 0.04 | 88 | 1013.6 |
| 20260903204115 | 88 | 108 | 2.0 | 2.0 | 0.00 | 0.04 | 0.04 | 89 | 1013.5 |
| 20260903203611 | 88 | 81 | 6.0 | 8.0 | 0.00 | 0.04 | 0.04 | 88 | 1013.3 |
| 20260903203106 | 88 | 100 | 4.0 | 5.0 | 0.00 | 0.04 | 0.04 | 90 | 1013.2 |
| 20260903202601 | 88 | 226 | 0.0 | 1.0 | 0.00 | 0.04 | 0.04 | 91 | 1013.6 |
| 20260903202057 | 89 | 13 | 1.0 | 2.0 | 0.00 | 0.04 | 0.04 | 90 | 1013.8 |
| 20260903201551 | 88 | 20 | 3.0 | 3.0 | 0.00 | 0.04 | 0.04 | 91 | 1014.3 |
| 20260903201050 | 88 | 92 | 4.0 | 5.0 | 0.00 | 0.04 | 0.04 | 92 | 1014.6 |
| 20260903200545 | 87 | 141 | 0.0 | 1.0 | 0.00 | 0.04 | 0.04 | 93 | 1014.5 |
| 20260903200040 | 87 | 106 | 5.0 | 6.0 | 0.00 | 0.04 | 0.04 | 93 | 1014.5 |
| 20260903195536 | 88 | 100 | 5.0 | 6.0 | 0.00 | 0.04 | 0.04 | 93 | 1014.5 |
| 20260903195032 | 87 | 175 | 2.0 | 2.0 | 0.00 | 0.04 | 0.04 | 94 | 1014.2 |
| 20260903194527 | 87 | 329 | 3.0 | 3.0 | 0.00 | 0.04 | 0.04 | 95 | 1014.1 |
| 20260903194022 | 87 | 16 | 2.0 | 2.0 | 0.00 | 0.04 | 0.04 | 96 | 1014.4 |
| 20260903193519 | 86 | 110 | 3.0 | 5.0 | 0.00 | 0.04 | 0.04 | 96 | 1014.4 |
| 20260903193014 | 85 | 128 | 3.0 | 6.0 | 0.00 | 0.04 | 0.04 | 97 | 1014.5 |
| 20260903192511 | 85 | 323 | 0.0 | 0.0 | 0.00 | 0.04 | 0.04 | 99 | 1014.6 |
| 20260903192011 | 84 | 297 | 0.0 | 0.0 | 0.00 | 0.04 | 0.04 | 99 | 1014.9 |
| 20260903191507 | 84 | 73 | 3.0 | 5.0 | 0.00 | 0.04 | 0.04 | 99 | 1014.5 |
| 20260903191007 | 84 | 75 | 0.0 | 1.0 | 0.00 | 0.04 | 0.04 | 99 | 1014.6 |
| 20260903190501 | 84 | 337 | 0.0 | 0.0 | 0.00 | 0.04 | 0.04 | 99 | 1014.8 |
| 20260903185959 | 84 | 36 | 0.0 | 1.0 | 0.00 | 0.04 | 0.04 | 99 | 1014.8 |
| 20260903185451 | 83 | 307 | 0.0 | 0.0 | 0.07 | 0.04 | 0.04 | 98 | 1014.9 |
| 20260903184950 | 83 | 15 | 0.0 | 1.0 | 0.07 | 0.04 | 0.04 | 98 | 1015.1 |
| 20260903184448 | 83 | 47 | 0.0 | 0.0 | 0.00 | 0.03 | 0.03 | 98 | 1014.9 |
| 20260903183947 | 83 | 191 | 1.0 | 1.0 | 0.00 | 0.03 | 0.03 | 97 | 1015.0 |
| 20260903183442 | 82 | 312 | 0.0 | 0.0 | 0.00 | 0.03 | 0.03 | 97 | 1015.0 |
| 20260903182941 | 82 | 78 | 2.0 | 2.0 | 0.00 | 0.03 | 0.03 | 97 | 1015.1 |
| 20260903182440 | 83 | 2 | 3.0 | 3.0 | 0.00 | 0.03 | 0.03 | 97 | 1015.1 |
| 20260903181936 | 83 | 107 | 1.0 | 2.0 | 0.00 | 0.03 | 0.03 | 97 | 1015.5 |
| 20260903181424 | 83 | 349 | 0.0 | 0.0 | 0.00 | 0.03 | 0.03 | 97 | 1015.3 |
| 20260903180924 | 83 | 336 | 0.0 | 0.0 | 0.00 | 0.03 | 0.03 | 97 | 1015.6 |
| 20260903180419 | 83 | 98 | 1.0 | 2.0 | 0.00 | 0.03 | 0.03 | 97 | 1015.6 |
| 20260903175918 | 83 | 324 | 0.0 | 0.0 | 0.00 | 0.03 | 0.03 | 97 | 1015.8 |
| 20260903175413 | 82 | 273 | 1.0 | 1.0 | 0.00 | 0.03 | 0.03 | 97 | 1016.0 |
| 20260903174907 | 82 | 313 | 0.0 | 0.0 | 0.00 | 0.03 | 0.03 | 97 | 1015.9 |
| 20260903174402 | 82 | 241 | 0.0 | 0.0 | 0.00 | 0.03 | 0.03 | 97 | 1015.8 |